Temp
13 12 12 12 12 10 8 10 9 8 6 7 9 10 10 10 9 8 8 7 5 4 3 2 1 0 -0 -1 -2 -2 -3 -4 -5 -6 -6 -7 -7 -7 -7 -7 -8 -8 -7 -8
12 11 12 12 12 12 11 11 9 10 8 8 12 11 11 10 9 9 9 8 6 4 3 2 1 1 -0 -2 -2 -3 -3 -4 -5 -6 -6 -7 -7 -7 -7 -7 -7 -9 -7 -8
13 11 11 10 10 12 12 12 12 10 10 12 11 11 11 11 10 10 9 8 6 4 3 2 1 1 -1 -2 -2 -3 -4 -4 -5 -6 -6 -7 -7 -7 -7 -7 -7 -8 -9 -8
12 11 10 15 13 14 13 13 13 13 14 13 14 13 11 12 11 10 9 7 5 4 3 2 1 1 -0 -2 -2 -3 -4 -4 -4 -5 -6 -6 -7 -7 -7 -7 -7 -8 -8 -9
11 13 15 16 12 12 12 14 14 14 14 12 12 12 11 10 10 10 8 7 5 4 3 1 1 0 -1 -2 -3 -3 -3 -3 -4 -4 -5 -6 -7 -7 -7 -7 -7 -8 -8 -8
10 12 14 15 13 11 12 14 14 15 14 13 12 14 16 10 9 9 7 6 5 3 2 1 1 0 -1 -2 -3 -3 -3 -3 -4 -4 -5 -6 -7 -7 -7 -8 -8 -8 -8 -9
9 10 13 14 11 10 14 15 13 13 13 12 13 15 12 10 8 7 6 5 4 3 2 1 1 -0 -2 -2 -3 -2 -2 -3 -4 -4 -5 -6 -7 -7 -8 -8 -8 -8 -8 -8
10 9 10 11 10 13 14 12 11 11 12 12 12 10 10 9 8 7 6 4 4 3 2 1 0 -1 -1 -2 -1 -2 -3 -4 -5 -5 -5 -7 -7 -7 -8 -8 -8 -8 -8 -8
12 12 11 10 13 12 10 12 11 11 10 10 10 9 9 8 7 6 5 4 4 3 2 1 -0 -1 -2 -1 -1 -2 -3 -4 -5 -5 -5 -6 -7 -7 -8 -8 -8 -8 -8 -8
11 14 11 10 10 10 11 11 11 11 10 9 9 9 8 7 7 6 5 4 4 3 2 1 1 0 -1 -1 -1 -2 -3 -4 -5 -5 -6 -6 -6 -7 -7 -6 -8 -8 -9 -9
11 12 11 11 11 12 11 10 10 10 10 9 9 9 8 7 6 6 5 4 3 3 2 2 2 1 0 -0 -1 -2 -3 -3 -4 -5 -5 -6 -5 -5 -6 -5 -6 -7 -7 -9
14 15 15 15 13 12 11 11 11 10 10 9 9 9 8 7 6 5 5 5 3 3 3 3 3 2 1 0 -1 -2 -3 -4 -4 -5 -5 -6 -7 -6 -5 -5 -6 -6 -6 -7
15 12 13 12 14 14 12 11 11 10 10 9 9 9 8 7 6 5 5 6 4 4 4 4 2 1 0 -0 -1 -2 -4 -4 -4 -4 -6 -5 -5 -6 -7 -6 -6 -6 -6 -6
12 11 12 12 14 13 13 11 11 11 10 10 10 8 8 7 6 6 6 6 5 4 4 3 2 1 1 -0 -1 -2 -3 -3 -4 -4 -4 -5 -5 -5 -6 -6 -6 -6 -7 -7
12 12 13 12 13 12 13 11 10 11 10 9 9 9 8 7 8 7 6 6 5 5 4 3 2 2 1 0 -1 -1 -2 -3 -3 -4 -4 -5 -5 -5 -6 -6 -6 -7 -7 -7
13 12 11 11 12 12 11 10 11 11 9 10 10 9 9 9 8 7 7 6 6 6 5 4 3 2 1 0 -0 -1 -2 -3 -3 -4 -4 -5 -5 -6 -6 -6 -6 -7 -7 -7
11 10 11 10 11 11 10 11 11 11 10 10 10 10 9 9 8 8 7 7 6 6 5 4 3 2 1 0 -0 -1 -2 -2 -3 -4 -4 -5 -5 -6 -6 -6 -6 -7 -7 -7
13 13 13 14 12 11 10 11 11 10 10 11 11 10 10 10 9 8 8 7 6 5 5 4 3 3 2 1 -0 -1 -2 -2 -3 -4 -4 -5 -5 -5 -6 -6 -6 -7 -7 -7
12 12 12 13 14 13 11 11 12 12 11 11 11 11 11 10 10 9 8 8 7 6 5 4 4 3 2 1 0 -1 -2 -2 -3 -4 -4 -5 -5 -5 -6 -6 -6 -7 -7 -7
12 12 11 11 13 13 14 12 12 12 12 11 11 11 10 10 10 9 9 8 8 8 6 5 4 3 2 1 -0 -1 -1 -2 -3 -4 -4 -4 -5 -5 -6 -6 -6 -7 -7 -7
12 11 11 10 12 12 13 13 12 12 12 12 12 11 11 10 10 9 8 7 7 7 6 5 4 3 2 2 0 -1 -1 -2 -3 -3 -4 -4 -5 -5 -5 -6 -6 -6 -7 -7
11 11 12 12 11 11 12 13 12 12 12 12 12 11 11 10 10 9 8 8 8 7 6 5 4 3 3 2 1 -0 -1 -1 -2 -3 -3 -4 -4 -5 -5 -5 -6 -6 -7 -7
12 12 12 12 11 10 11 12 12 12 11 11 12 11 11 11 10 9 9 8 8 7 6 5 5 4 3 2 1 1 -0 -1 -1 -2 -3 -3 -4 -4 -5 -5 -6 -6 -6 -7
12 12 11 11 9 9 10 11 12 12 11 11 11 11 11 10 10 9 8 8 8 7 6 6 5 4 3 2 2 1 0 -0 -1 -2 -3 -3 -4 -4 -5 -5 -5 -6 -6 -7
12 11 10 10 10 10 10 11 11 11 11 11 11 10 10 10 9 9 9 8 7 6 6 5 4 4 3 3 2 1 1 -0 -1 -2 -2 -3 -3 -4 -4 -5 -5 -6 -6 -6
11 10 10 10 10 11 11 11 11 11 11 11 10 10 10 9 9 9 8 8 7 6 6 5 4 4 3 3 2 2 1 -0 -1 -1 -2 -3 -3 -4 -4 -4 -5 -5 -6 -6
9 10 10 10 10 11 11 11 11 11 11 11 10 10 9 9 9 8 8 7 7 6 6 5 4 4 3 3 2 2 1 0 -0 -1 -2 -2 -3 -3 -4 -4 -5 -5 -5 -6
Height
1535 1537 1538 1541 1545 1553 1559 1555 1557 1553 1556 1551 1549 1549 1552 1554 1557 1560 1563 1567 1569 1573 1574 1575 1575 1575 1574 1573 1571 1567 1565 1561 1557 1553 1550 1546 1543 1539 1535 1531 1525 1519 1513 1509
1537 1540 1540 1541 1538 1541 1545 1548 1549 1549 1545 1544 1544 1546 1548 1551 1553 1556 1560 1564 1568 1571 1572 1573 1574 1574 1573 1572 1570 1568 1565 1561 1557 1554 1551 1547 1544 1541 1537 1533 1529 1523 1516 1512
1530 1538 1541 1540 1529 1528 1531 1532 1534 1542 1532 1535 1537 1540 1542 1546 1549 1553 1557 1561 1565 1568 1570 1572 1572 1572 1573 1572 1570 1568 1565 1562 1558 1555 1552 1549 1546 1543 1539 1535 1531 1527 1521 1515
1532 1538 1542 1508 1515 1516 1521 1523 1528 1524 1526 1530 1532 1535 1537 1542 1546 1551 1555 1558 1562 1565 1568 1570 1570 1571 1571 1572 1570 1568 1566 1563 1560 1557 1554 1551 1548 1545 1542 1538 1534 1530 1526 1520
1532 1526 1507 1501 1513 1516 1517 1511 1512 1513 1521 1528 1532 1534 1537 1540 1544 1549 1553 1556 1560 1563 1566 1568 1569 1570 1571 1571 1570 1568 1566 1564 1561 1558 1555 1552 1550 1547 1544 1541 1536 1532 1528 1524
1533 1526 1514 1503 1510 1514 1517 1507 1503 1505 1514 1522 1528 1528 1527 1537 1542 1548 1551 1554 1558 1561 1564 1566 1568 1569 1571 1571 1570 1568 1567 1564 1562 1559 1557 1554 1551 1548 1546 1543 1540 1536 1532 1527
1533 1528 1509 1503 1510 1514 1511 1504 1504 1504 1508 1515 1522 1524 1528 1535 1541 1545 1549 1553 1557 1560 1563 1565 1567 1569 1570 1571 1570 1568 1567 1565 1563 1561 1558 1556 1553 1550 1548 1545 1542 1539 1536 1531
1526 1529 1521 1506 1512 1509 1503 1504 1505 1505 1507 1514 1522 1525 1529 1535 1539 1544 1547 1552 1557 1560 1562 1564 1567 1569 1571 1571 1569 1568 1567 1566 1564 1562 1560 1558 1555 1552 1549 1547 1544 1541 1538 1535
1507 1504 1502 1502 1499 1502 1504 1505 1506 1507 1509 1514 1520 1524 1529 1534 1539 1543 1547 1551 1556 1559 1561 1564 1567 1569 1570 1569 1568 1567 1567 1566 1565 1563 1561 1558 1556 1553 1550 1548 1545 1542 1540 1537
1504 1493 1499 1500 1500 1501 1503 1505 1506 1508 1510 1513 1518 1523 1528 1533 1538 1542 1547 1551 1555 1556 1559 1562 1565 1567 1568 1568 1567 1566 1566 1566 1565 1564 1562 1560 1557 1555 1552 1549 1546 1544 1541 1539
1499 1494 1496 1495 1493 1496 1500 1503 1505 1507 1509 1512 1517 1522 1527 1532 1536 1541 1545 1549 1552 1554 1557 1560 1562 1563 1563 1563 1564 1564 1565 1564 1564 1563 1562 1561 1559 1556 1554 1551 1548 1545 1542 1540
1488 1487 1488 1487 1488 1490 1494 1498 1503 1506 1508 1512 1517 1521 1526 1530 1533 1538 1542 1545 1550 1552 1552 1553 1555 1557 1559 1560 1561 1562 1563 1564 1563 1563 1561 1561 1560 1558 1556 1553 1551 1548 1546 1543
1484 1486 1487 1488 1487 1488 1489 1494 1499 1503 1506 1509 1514 1519 1523 1527 1531 1535 1539 1542 1546 1549 1551 1553 1554 1556 1559 1560 1561 1561 1563 1563 1562 1562 1562 1561 1560 1559 1558 1555 1553 1551 1548 1545
1481 1483 1485 1485 1486 1486 1487 1491 1497 1501 1505 1508 1511 1515 1519 1524 1528 1533 1537 1541 1545 1548 1550 1552 1554 1556 1557 1559 1560 1561 1562 1562 1562 1562 1561 1561 1560 1560 1558 1557 1555 1554 1551 1549
1477 1477 1480 1482 1483 1484 1485 1488 1493 1497 1501 1505 1509 1513 1517 1521 1525 1530 1535 1540 1543 1546 1549 1551 1552 1554 1555 1557 1558 1559 1560 1561 1561 1561 1561 1560 1560 1560 1559 1558 1556 1555 1553 1551
1470 1472 1474 1476 1479 1481 1483 1485 1489 1493 1497 1501 1505 1510 1515 1520 1524 1528 1532 1536 1538 1541 1545 1548 1550 1552 1553 1554 1555 1557 1558 1559 1559 1560 1560 1560 1560 1560 1559 1559 1558 1556 1555 1553
1465 1467 1468 1470 1472 1475 1478 1481 1484 1488 1492 1497 1502 1507 1512 1516 1521 1525 1529 1533 1537 1541 1544 1546 1548 1549 1550 1552 1553 1554 1555 1557 1558 1559 1559 1559 1559 1560 1559 1558 1558 1557 1555 1554
1457 1461 1461 1463 1465 1468 1472 1475 1480 1484 1486 1492 1498 1502 1506 1510 1515 1520 1524 1529 1533 1537 1540 1542 1544 1546 1548 1549 1551 1552 1553 1554 1556 1557 1558 1559 1559 1559 1559 1558 1558 1557 1556 1554
1448 1451 1456 1458 1461 1464 1466 1469 1474 1478 1482 1487 1492 1496 1502 1507 1512 1516 1520 1523 1528 1531 1534 1537 1540 1543 1545 1547 1548 1550 1551 1553 1554 1555 1556 1557 1558 1558 1558 1558 1558 1557 1556 1554
1438 1443 1447 1451 1455 1458 1461 1464 1469 1473 1477 1481 1487 1492 1497 1502 1506 1510 1514 1518 1522 1526 1530 1533 1537 1539 1542 1544 1546 1547 1549 1551 1552 1554 1555 1555 1556 1556 1556 1556 1555 1554 1554 1553
1426 1433 1436 1441 1444 1450 1455 1459 1463 1467 1472 1477 1482 1487 1491 1495 1500 1504 1508 1512 1517 1521 1526 1529 1533 1535 1538 1540 1543 1545 1547 1549 1550 1551 1552 1552 1553 1553 1553 1553 1552 1552 1552 1551
1419 1423 1426 1430 1435 1441 1447 1453 1457 1462 1467 1473 1478 1483 1487 1490 1494 1498 1503 1508 1511 1515 1520 1523 1527 1530 1533 1537 1539 1541 1543 1545 1546 1547 1547 1548 1548 1548 1548 1548 1548 1549 1548 1549
1411 1415 1418 1422 1426 1433 1441 1447 1451 1456 1461 1467 1472 1477 1482 1485 1489 1492 1495 1500 1504 1509 1515 1519 1522 1526 1528 1531 1533 1535 1537 1538 1539 1540 1542 1542 1543 1544 1544 1544 1545 1545 1546 1545
1406 1409 1413 1417 1421 1427 1435 1441 1447 1451 1457 1463 1468 1473 1477 1480 1484 1487 1491 1495 1500 1505 1510 1514 1518 1521 1523 1525 1526 1529 1531 1532 1534 1535 1536 1537 1538 1538 1539 1539 1539 1540 1540 1541
1402 1406 1410 1413 1419 1427 1433 1438 1443 1447 1451 1457 1462 1467 1473 1477 1481 1485 1488 1492 1496 1501 1505 1510 1513 1515 1517 1519 1521 1523 1525 1527 1528 1529 1530 1530 1531 1532 1533 1533 1533 1534 1535 1535
1401 1405 1409 1414 1420 1425 1429 1434 1439 1443 1447 1452 1458 1463 1468 1472 1476 1480 1484 1487 1491 1495 1499 1503 1506 1508 1510 1512 1514 1517 1519 1520 1521 1522 1523 1524 1524 1525 1526 1526 1527 1527 1527 1528
1402 1405 1409 1414 1420 1425 1429 1433 1437 1440 1445 1450 1455 1459 1464 1468 1472 1476 1480 1483 1487 1490 1494 1498 1501 1503 1506 1508 1509 1511 1513 1514 1514 1516 1516 1517 1518 1518 1518 1519 1519 1519 1519 1519
Wind_Speed
4 6 6 6 14 19 18 16 8 1 8 3 8 13 14 15 16 15 12 10 11 11 9 7 3 2 5 6 9 11 11 13 15 15 15 15 16 17 18 19 20 22 24 24
6 5 7 8 12 18 22 21 17 15 18 16 19 7 14 15 16 16 13 11 12 12 11 8 4 3 4 6 9 10 11 13 14 14 14 16 16 16 16 17 19 21 24 24
3 4 5 9 18 20 18 13 23 15 8 7 7 14 19 16 15 14 13 12 14 13 12 8 5 2 3 5 8 9 11 12 14 15 15 15 15 15 16 17 17 19 22 23
3 5 5 2 1 13 22 13 20 16 10 11 9 6 12 14 14 14 13 15 15 15 13 10 5 4 4 5 7 9 11 12 14 15 15 15 15 15 16 16 16 16 19 21
3 7 9 9 6 6 11 10 24 25 17 13 10 10 9 12 13 15 15 15 16 15 13 10 7 5 4 5 6 8 10 12 14 15 15 16 16 15 15 15 16 15 17 19
3 4 4 3 4 6 8 5 3 17 19 21 17 9 6 18 17 16 17 17 18 16 14 10 7 5 5 5 5 8 10 12 13 14 15 15 16 14 14 14 14 15 16 18
4 4 6 3 9 12 5 3 5 6 19 26 18 6 10 20 19 18 19 21 18 15 13 11 8 6 5 5 5 8 10 11 12 13 14 14 15 14 14 14 14 15 15 16
5 4 7 11 10 5 3 3 4 5 15 21 18 10 14 21 22 22 23 21 17 16 14 11 8 7 6 4 5 7 8 9 10 12 13 12 14 13 14 14 14 15 15 16
8 4 1 21 3 12 2 2 3 7 11 18 19 15 21 22 23 24 23 20 18 16 13 11 9 7 6 2 4 6 7 7 7 10 12 12 12 13 14 14 14 15 15 16
2 4 15 11 17 10 12 2 2 4 12 16 19 20 21 23 24 24 22 20 18 16 13 12 8 6 4 2 3 4 5 5 6 7 8 10 11 12 14 16 15 15 15 17
5 12 10 14 19 19 17 11 6 7 11 16 19 23 23 25 25 23 22 20 19 16 14 12 8 7 5 4 3 4 4 4 5 6 6 6 10 13 13 16 17 18 18 15
4 7 3 1 2 12 21 21 17 11 13 16 21 22 23 24 24 24 24 22 19 18 16 13 11 10 8 6 5 5 5 5 4 4 5 5 5 8 12 13 14 15 16 17
3 3 6 4 2 2 12 22 19 16 15 19 20 21 23 24 24 25 24 23 21 18 15 12 12 11 9 7 6 6 6 5 4 5 4 4 5 5 6 10 12 13 14 15
14 7 7 11 7 5 5 16 23 17 16 18 21 21 23 24 26 26 25 22 20 17 13 12 12 11 9 8 7 6 7 5 5 4 4 4 4 5 6 7 8 10 12 13
19 19 16 7 7 8 9 14 22 22 20 19 21 24 25 25 27 27 25 24 21 18 15 14 13 12 11 9 8 7 7 6 5 4 3 3 4 5 5 6 8 9 11 12
17 19 16 18 14 13 13 16 24 25 23 24 25 26 26 23 24 26 26 25 24 21 18 16 14 12 11 11 10 9 8 6 5 4 3 2 3 3 4 5 6 6 7 9
13 11 15 16 19 19 19 19 23 27 26 28 28 27 28 28 27 26 25 25 23 18 15 14 14 13 12 12 11 9 9 8 6 5 4 3 2 2 2 3 4 5 6 7
26 16 10 7 11 16 21 22 21 23 28 32 30 30 31 30 30 28 26 26 26 24 21 17 16 14 15 14 13 11 10 9 8 7 6 5 3 2 1 1 2 3 4 6
32 28 20 22 16 12 17 24 25 22 24 32 33 33 30 28 28 27 28 28 27 27 25 23 18 16 16 15 14 13 12 11 10 9 8 7 5 4 3 1 0 1 2 3
49 39 30 27 28 23 15 21 26 22 22 25 28 30 29 28 29 30 30 28 25 25 25 22 19 18 17 16 15 14 13 12 11 11 9 8 8 6 5 4 3 3 2 1
39 35 36 36 37 32 25 21 28 28 26 25 25 24 21 23 27 29 31 31 29 28 23 22 21 19 19 17 17 17 15 13 13 12 11 10 10 9 8 8 7 6 5 4
32 31 33 32 31 32 29 23 26 32 29 28 26 24 20 20 24 27 27 26 29 28 26 24 22 20 19 17 17 18 16 15 14 14 13 13 12 12 12 11 10 9 8 7
27 27 27 26 28 31 29 26 25 29 33 30 27 26 23 19 21 27 29 30 28 29 30 26 21 19 17 18 18 18 17 17 16 15 14 13 13 13 14 13 13 12 11 10
23 22 19 18 23 28 32 28 23 24 29 28 27 26 26 21 19 23 24 26 26 25 29 24 20 20 19 20 20 19 19 18 18 17 17 16 16 15 16 15 16 15 14 13
19 20 20 23 26 26 27 29 25 23 29 30 29 28 26 21 19 20 20 19 23 27 28 23 20 21 21 21 20 19 20 20 19 19 20 19 19 18 17 17 17 18 17 16
20 23 25 24 24 25 25 27 28 26 27 29 28 27 27 24 22 22 22 22 23 28 27 23 23 24 23 22 21 20 20 20 21 22 22 22 22 22 20 19 19 19 19 19
23 25 27 25 24 22 23 25 25 25 24 25 26 26 25 24 23 24 23 25 25 25 25 23 23 24 23 22 21 20 20 21 22 23 24 24 24 24 23 22 21 20 21 22
Wind_Direction
120 132 171 195 197 202 208 212 217 165 216 196 219 218 203 194 187 196 200 193 187 185 184 173 153 68 27 24 14 16 12 9 9 11 14 15 14 14 13 12 12 16 23 24
187 179 209 227 214 209 218 224 233 258 270 219 239 223 198 195 191 203 207 202 189 184 177 170 151 102 36 32 17 22 16 13 13 15 16 18 16 13 14 15 14 16 22 23
187 193 223 261 229 211 209 216 222 225 224 180 181 212 208 195 197 206 206 191 179 177 170 163 149 81 83 39 29 28 23 18 18 20 18 17 16 15 15 14 16 18 17 22
139 168 232 101 97 208 219 221 215 231 215 202 223 185 176 190 197 195 183 170 168 166 161 154 148 117 69 54 38 33 30 28 26 25 22 18 17 19 18 15 15 17 19 18
186 221 302 246 188 182 183 246 222 228 222 205 176 162 169 181 184 181 172 163 161 159 155 150 144 118 103 70 53 41 38 37 33 31 28 24 19 20 19 18 17 21 20 19
180 248 242 84 145 178 191 267 31 217 208 194 174 195 176 178 172 165 159 156 155 153 149 148 145 123 114 96 69 47 47 45 39 35 32 28 23 22 21 22 22 23 25 27
194 257 283 171 144 163 209 53 349 216 192 188 190 172 128 164 162 160 157 153 152 150 147 150 144 128 114 105 62 48 52 51 45 38 36 29 27 27 27 26 27 28 26 28
194 214 268 157 142 215 33 28 14 160 174 180 180 159 147 159 157 157 153 153 152 149 148 150 146 134 122 115 43 53 58 54 47 40 37 31 29 30 29 28 31 29 28 27
206 213 151 188 185 200 78 55 78 138 161 171 173 163 158 159 159 157 155 154 155 153 151 153 149 142 139 79 50 58 65 56 45 39 37 34 33 33 31 29 31 30 27 24
210 206 228 217 227 230 225 260 140 142 165 168 167 162 159 160 158 156 157 158 160 157 156 157 161 162 166 112 69 80 90 70 57 48 47 37 35 36 35 36 35 31 32 27
256 273 243 248 232 227 223 211 189 172 168 170 169 170 167 165 162 161 160 162 164 160 157 163 171 181 185 171 137 129 122 96 71 63 59 48 44 45 41 38 37 35 35 29
214 216 269 292 190 221 215 207 205 190 173 174 177 173 172 170 167 165 166 167 168 167 169 175 183 190 189 182 166 153 143 132 111 89 72 69 54 34 43 41 39 37 36 36
270 230 238 259 223 299 205 202 190 191 186 177 175 178 175 172 172 172 174 174 176 177 177 181 188 192 195 188 178 165 165 160 133 110 97 79 67 59 34 42 43 38 37 36
237 227 255 245 241 238 248 202 199 191 184 183 180 176 173 173 178 179 182 180 178 183 188 193 195 197 200 195 189 184 178 168 157 144 126 104 91 76 60 49 42 37 39 38
244 243 248 256 219 232 230 183 189 189 184 178 181 179 179 178 184 185 186 187 188 194 199 201 204 205 205 202 199 197 195 183 171 163 147 125 104 85 70 58 49 41 36 34
244 242 239 236 238 226 206 191 194 192 189 187 184 183 187 187 186 188 190 193 197 203 205 208 211 212 210 207 206 204 203 200 193 186 178 146 112 94 78 71 66 58 49 43
207 221 229 230 227 219 212 208 202 199 195 194 192 189 191 192 191 193 194 200 205 206 208 214 214 216 214 212 212 211 211 209 205 204 205 195 167 126 89 72 67 61 54 47
235 221 229 270 232 220 213 211 209 203 204 204 200 198 201 201 200 199 201 204 206 205 209 214 216 216 216 215 215 216 217 217 215 216 219 215 203 196 177 84 60 54 51 47
237 239 237 253 250 241 218 212 211 213 212 210 209 211 213 213 212 210 209 209 209 208 213 216 219 219 220 218 217 219 221 222 221 222 224 226 225 223 228 232 306 18 41 44
239 240 239 238 243 240 231 216 209 210 207 205 209 215 219 220 219 219 217 217 217 218 215 218 217 220 222 221 217 222 225 226 226 228 232 236 236 234 236 237 238 245 248 256
236 232 232 232 238 233 230 220 206 203 200 197 201 207 213 218 218 218 217 214 215 215 216 216 218 222 222 223 218 224 228 229 231 237 239 241 244 244 244 245 244 246 249 249
228 225 231 234 231 222 216 210 208 207 205 204 203 203 205 211 213 215 220 222 217 214 207 209 215 220 225 224 221 226 231 232 235 239 243 243 246 248 248 247 247 247 249 251
224 222 227 225 220 210 207 210 207 206 206 208 207 203 203 214 217 213 212 211 217 212 207 214 219 220 222 220 226 230 232 235 238 242 245 248 250 252 254 252 251 251 251 251
208 213 213 203 187 192 198 196 194 198 199 202 205 206 207 208 211 213 217 217 211 205 208 214 218 218 221 225 230 232 234 237 240 243 246 249 253 256 257 257 254 252 251 251
193 193 186 176 177 186 194 193 190 193 194 198 202 203 204 206 212 208 209 210 207 203 207 212 215 219 226 231 234 235 238 241 243 245 248 251 254 257 261 261 260 257 255 254
177 174 168 167 173 181 185 188 192 191 192 196 199 202 204 205 206 208 205 204 201 204 208 212 218 221 228 233 236 238 241 244 246 247 249 252 254 256 258 263 263 261 258 256
168 167 166 169 176 180 180 184 189 191 195 199 201 200 203 207 207 204 205 205 204 206 212 218 223 226 232 236 239 241 243 247 250 251 253 254 256 257 258 259 263 263 260 256